星链-31724 (STARLINK-31724 )

导读 | 豆包AI

STARLINK-31724是美国太空探索技术公司(SpaceX)星链(Starlink)互联网卫星项目的一颗卫星,由美国于2024年4月18日发射入轨,属于星链星座组网卫星的一员,主要用于为全球提供高速低延迟的宽带互联网服务,尤其覆盖偏远地区和网络基础设施薄弱区域。

Basic Information
目录编号:
59554
目录名称:
STARLINK-31724
国际标识:
2024-074W
轨道中心:
EARTH
卫星名称:
星链-31724
卫星全名:
星链-31724 (STARLINK-31724 )
卫星状态:
在轨 (已飞行743 天)
发射日期:
2024-04-18 UTC
国别 :
美国 (US)
星等 :
--
Orbit Information
数据来源 国际轨道数据 AOE轨道数据
星历时间 2026-04-30T17:44:54+0800
16小时前
查看轨道信息
2026-04-28T17:00:00+0800
2天前
查看轨道信息
半长轴 6861.234km 6861.194km
偏心率 0.0001351 0.0001035
轨道倾角 43.005° 43.003°
近地点辐角 276.807° 248.914°
升交点赤经 15.422° 26.894°
平近点角 83.263° 88.138°
近地点 482.17km 482.346km
远地点 484.024km 483.768km
周期 94.268分钟 94.267分钟
每日圈数 15.275641 15.275775
Detailed Information
固有亮度:
5
最大亮度:
1.5
卫星平台:
Starlink v2.0 mini
覆盖范围:
全球
运营商:
太空探索技术公司
运营商所在国:
美国
制造商(研发单位):
太空探索技术公司
制造商所在国:
美国
使用方式:
暂无
Satellite Introduction
星链(Starlink)计划是由太空探索技术公司(SpaceX)提出的一个巨型低轨卫星互联网星座项目,计划在2019年至2024年间在太空搭建由约1.2万颗卫星组成的“星链”网络,其中1584颗将部署在地球上空550千米处的近地轨道,并从2020年开始工作。该卫星仍在工作。
2D Orbit Map
3D Orbit Map
Orbit Altitude Analysis Chart
Orbit Inclination Analysis Chart
Orbit Comprehensive Analysis Chart
View Comprehensive Chart